Location: Eymir
(36.7333°N, 29.7833°E)
Time: 04:48:39
(UTC+00:00)

Cosmos 1758 - Visible Passes

Search period start: 21 April 2026 00:00
Search period end: 01 May 2026 00:00
Orbit: 477 x 497 km, 82.5° (Epoch: 20 April)

Date Brightness Start Highest point End Pass type
(mag) Time Alt. Az. Time Alt. Az. Time Alt. Az.
21 Apr 6.3 01:20:03 10° NE 01:21:41 13° ENE 01:23:21 10° E visible
22 Apr 3.2 02:29:29 10° NNW 02:33:00 51° W 02:36:30 10° S visible
23 Apr 3.0 02:05:26 10° N 02:09:04 89° W 02:12:40 10° S visible
24 Apr 3.9 01:41:31 10° N 01:45:04 52° E 01:48:35 10° SSE visible
25 Apr 4.9 01:17:47 10° NNE 01:21:02 30° ENE 01:24:15 10° SE visible
26 Apr 5.7 00:54:17 10° NNE 00:56:57 19° ENE 00:59:36 10° ESE visible
26 Apr 4.5 02:29:18 10° NW 02:31:56 19° W 02:34:33 10° SW visible
27 Apr 6.1 00:31:19 10° NE 00:32:48 12° ENE 00:34:18 10° E visible
27 Apr 3.8 02:04:47 10° NNW 02:08:01 31° W 02:10:13 17° SW visible
28 Apr 3.1 01:40:32 10° NNW 01:44:03 53° W 01:45:27 31° SSW visible
29 Apr 2.9 01:16:25 10° N 01:20:03 87° E 01:20:50 53° S visible
30 Apr 3.8 00:52:28 10° N 00:56:00 49° E 00:56:19 47° E visible
